Powrót do katalogu

STARLINK-3801

AktywnyŁącznośćVLEO
NORAD 52356·PAYLOAD·🇺🇸 United States

Wystrzelony Apr 29, 2022 z Cape Canaveral Space Force Station

Loading…

Następne Przeloty (najbliższe 24 godziny)

TLE

ŚwieżeSource: CelesTrak SupGP

Epoka: Sep 14, 2026, 21:41 UTC

1 52356C 22045AB  26257.90395833  .00048247  00000+0  14259-2 0  2570
2 52356  53.1593  55.5722 0001204  78.9302 268.7096 15.34358333    18

Śledź STARLINK-3801 w czasie rzeczywistym z AllMySat

Download on the App Store